FW3731 Weather Reports


Display with metric or nautical units.
time (UTC)temp
F
wind
direction
speed
MPH
gust
MPH
rain 1hr
in
rain 24hr
in
rain mn
in
humidity
%
barometer
mb
20260504021508 69 169 0.0 2.0 0.00 0.00 0.00 54 1009.7
20260504020009 69 160 0.0 3.0 0.00 0.00 0.00 56 1009.8
20260504014506 70 194 0.0 2.0 0.00 0.00 0.00 52 1009.8
20260504013006 71 206 0.0 1.0 0.00 0.00 0.00 49 1009.8
20260504011506 73 249 0.0 1.0 0.00 0.00 0.00 47 1009.8
20260504010005 74 247 0.0 5.0 0.00 0.00 0.00 45 1009.8
20260504004510 75 256 0.0 3.0 0.00 0.00 0.00 43 1009.8
20260504003004 76 144 0.0 5.0 0.00 0.00 0.00 42 1009.8
20260504001508 77 153 2.0 8.0 0.00 0.00 0.00 40 1009.8
20260504000001 78 209 1.0 8.0 0.00 0.00 0.00 40 1009.8
20260503234502 79 232 1.0 6.0 0.00 0.00 0.00 38 1009.8
20260503233100 80 227 2.0 8.0 0.00 0.00 0.00 37 1009.8
20260503231559 81 227 2.0 8.0 0.00 0.00 0.00 37 1009.8
20260503230104 81 231 2.0 14.0 0.00 0.00 0.00 37 1009.9
20260503224604 81 226 2.0 14.0 0.00 0.00 0.00 37 1009.8
20260503223056 82 214 1.0 12.0 0.00 0.00 0.00 37 1010.0
20260503221603 82 270 6.0 15.0 0.00 0.00 0.00 37 1009.9
20260503220052 82 205 4.0 16.0 0.00 0.00 0.00 36 1010.1
20260503214550 82 217 3.0 11.0 0.00 0.00 0.00 38 1010.2
20260503213047 81 229 4.0 12.0 0.00 0.00 0.00 40 1010.3
20260503211544 81 141 9.0 19.0 0.00 0.00 0.00 39 1010.3
20260503210041 81 238 5.0 15.0 0.00 0.00 0.00 40 1010.6
20260503204538 81 223 4.0 13.0 0.00 0.00 0.00 40 1010.9
20260503203038 80 72 5.0 17.0 0.00 0.00 0.00 40 1011.2
20260503201534 80 203 9.0 16.0 0.00 0.00 0.00 40 1011.5
20260503200030 79 266 4.0 16.0 0.00 0.00 0.00 43 1012.0
20260503194526 79 252 5.0 20.0 0.00 0.00 0.00 45 1012.2
20260503193038 79 233 5.0 18.0 0.00 0.00 0.00 44 1012.5
20260503191547 78 195 6.0 17.0 0.00 0.00 0.00 45 1012.8
20260503190031 78 197 5.0 10.0 0.00 0.00 0.00 45 1013.3
20260503184515 77 260 5.0 12.0 0.00 0.00 0.00 45 1013.6
20260503183013 77 243 2.0 11.0 0.00 0.00 0.00 46 1013.7
20260503181510 76 211 8.0 19.0 0.00 0.00 0.00 46 1014.2
20260503180008 75 159 5.0 12.0 0.00 0.00 0.00 46 1014.7
20260503174502 75 185 5.0 15.0 0.00 0.00 0.00 46 1014.9
20260503173105 74 167 4.0 11.0 0.00 0.00 0.00 46 1015.2
20260503171556 73 209 5.0 14.0 0.00 0.00 0.00 47 1015.4
20260503170105 73 217 6.0 16.0 0.00 0.00 0.00 46 1015.7
20260503081510 43 161 0.0 1.0 0.00 0.00 0.00 91 1019.7
20260503071504 43 233 0.0 1.0 0.00 0.00 0.00 91 1020.1
20260503054607 43 224 0.0 1.0 0.00 0.00 0.00 88 1020.8
20260503053049 43 215 0.0 0.0 0.00 0.00 0.00 88 1020.8
20260503051547 43 219 0.0 0.0 0.00 0.00 0.00 87 1020.7
20260503050044 43 219 0.0 1.0 0.00 0.00 0.00 86 1020.8
20260503044546 44 199 0.0 0.0 0.00 0.00 0.00 86 1020.7
20260503043052 44 198 0.0 0.0 0.00 0.00 0.00 84 1020.7
20260503041543 45 198 0.0 0.0 0.00 0.00 0.00 84 1020.7
20260503040046 45 198 0.0 0.0 0.00 0.00 0.00 83 1020.6
20260503034547 46 226 0.0 1.0 0.00 0.00 0.00 83 1020.7
20260503033041 46 205 0.0 0.0 0.00 0.00 0.00 82 1020.9
20260503031541 47 208 0.0 1.0 0.00 0.00 0.00 81 1020.7
20260503030039 47 226 0.0 1.0 0.00 0.00 0.00 79 1020.7
20260503024539 48 220 0.0 1.0 0.00 0.00 0.00 78 1020.8
20260503023038 49 220 0.0 1.0 0.00 0.00 0.00 76 1020.5